period_start,C,m1,H,J0,J1,J2,J3,J4,J5,JA,JB,JC,JD,JJ,JK,JN,#
2013-12-28 00:00:02,0.35,7.23,0.67,24.18,25.83,28.63,6.02,31.08,1016.79,2041.18,1603.25,1859.73,2032.62,350.15,322.78,24.82,0000 0000 0000 0000 000000
2013-12-28 00:01:02,0.51,7.23,0.00,24.18,25.82,28.63,6.01,31.00,1016.73,2041.24,1602.89,1859.30,2032.23,349.88,322.70,24.83,0000 0000 0000 0000 000000
2013-12-28 00:02:02,0.63,7.24,0.00,24.17,25.82,28.61,6.03,31.00,1016.85,2041.31,1602.36,1859.10,2032.08,350.52,322.85,24.83,0000 0000 0000 0000 000000
2013-12-28 00:03:02,0.41,7.24,0.00,24.18,25.82,28.61,5.93,31.04,1016.86,2041.41,1602.11,1858.92,2031.88,350.35,323.30,24.84,0000 0000 0000 0000 000000
2013-12-28 00:04:02,0.37,7.24,0.00,24.18,25.82,28.62,5.97,31.13,1016.85,2041.58,1601.63,1858.47,2031.41,349.50,322.29,24.84,0000 0000 0000 0000 000000
2013-12-28 00:05:03,0.81,7.25,0.00,24.16,25.82,28.59,5.89,30.88,1016.73,2041.68,1601.23,1858.17,2031.14,349.36,322.15,24.85,0000 0000 0000 0000 000000
2013-12-28 00:06:03,0.50,7.25,0.00,24.17,25.82,28.56,5.93,31.00,1016.67,2041.72,1600.88,1858.02,2030.88,350.11,322.81,24.86,0000 0000 0000 0000 000000
2013-12-28 00:07:03,0.36,7.25,0.00,24.16,25.82,28.59,5.76,31.00,1016.65,2041.78,1600.37,1857.67,2030.39,349.19,321.97,24.86,0000 0000 0000 0000 000000
2013-12-28 00:08:03,0.65,7.26,0.00,24.17,25.82,28.62,5.93,30.96,1016.65,2041.77,1600.12,1857.25,2030.14,350.75,323.39,24.87,0000 0000 0000 0000 000000
2013-12-28 00:09:03,0.31,7.26,0.00,24.15,25.82,28.62,5.91,31.13,1016.64,2041.79,1599.63,1857.08,2029.90,350.05,322.76,24.87,0000 0000 0000 0000 000000
2013-12-28 00:10:04,0.42,7.26,0.00,24.17,25.82,28.59,5.92,30.92,1016.66,2041.82,1599.23,1856.85,2029.44,349.93,322.65,24.88,0000 0000 0000 0000 000000
2013-12-28 00:11:04,0.51,7.26,0.00,24.17,25.82,28.57,6.19,31.04,1016.64,2041.81,1599.04,1856.39,2029.16,351.40,324.06,24.89,0000 0000 0000 0000 000000
2013-12-28 00:12:04,0.34,7.27,0.00,24.18,25.82,28.59,6.02,30.96,1016.65,2041.81,1598.57,1856.14,2028.91,349.65,322.58,24.89,0000 0000 0000 0000 000000
2013-12-28 00:13:04,0.47,7.27,0.00,24.18,25.82,28.56,6.05,31.00,1016.66,2041.71,1598.20,1855.93,2028.38,350.44,323.14,24.90,0000 0000 0000 0000 000000
2013-12-28 00:14:04,0.28,7.27,0.00,24.17,25.82,28.57,5.97,31.00,1016.69,2041.75,1597.80,1855.46,2028.14,350.86,323.62,24.90,0000 0000 0000 0000 000000
2013-12-28 00:15:05,0.59,7.27,0.00,24.12,25.81,28.56,5.93,30.96,1016.86,2041.74,1597.32,1855.17,2027.94,349.28,322.16,24.91,0000 0000 0000 0000 000000
2013-12-28 00:16:05,0.39,7.28,0.00,24.13,25.81,28.58,5.98,30.88,1016.91,2041.78,1597.04,1855.05,2027.46,350.59,323.77,24.91,0000 0000 0000 0000 000000
2013-12-28 00:17:05,0.35,7.28,0.00,24.16,25.80,28.56,5.89,30.96,1016.81,2041.82,1596.53,1854.90,2027.17,349.73,322.45,24.92,0000 0000 0000 0000 000000
2013-12-28 00:18:05,0.46,7.28,0.00,24.13,25.80,28.58,5.89,31.00,1016.71,2041.89,1596.19,1854.39,2026.98,349.68,322.76,24.93,0000 0000 0000 0000 000000
2013-12-28 00:19:06,0.58,7.28,0.00,24.12,25.80,28.61,5.72,30.96,1016.66,2041.90,1595.79,1854.14,2026.48,349.23,321.91,24.93,0000 0000 0000 0000 000000
2013-12-28 00:20:06,0.49,7.29,0.00,24.12,25.80,28.57,6.03,31.08,1016.62,2041.88,1595.31,1853.98,2026.17,349.83,322.76,24.94,0000 0000 0000 0000 000000
2013-12-28 00:21:06,0.32,7.29,0.00,24.12,25.80,28.58,5.79,31.00,1016.63,2041.79,1595.03,1853.55,2025.95,349.73,322.38,24.94,0000 0000 0000 0000 000000
2013-12-28 00:22:06,0.26,7.29,0.00,24.12,25.80,28.59,5.94,30.79,1016.63,2041.79,1594.51,1853.20,2025.44,350.22,322.95,24.95,0000 0000 0000 0000 000000
2013-12-28 00:23:07,0.69,7.29,0.00,24.11,25.80,28.56,5.88,30.92,1016.64,2041.74,1594.17,1853.06,2025.16,350.35,323.08,24.96,0000 0000 0000 0000 000000
2013-12-28 00:24:07,0.19,7.30,0.00,24.12,25.80,28.57,6.07,31.08,1016.63,2041.76,1593.75,1852.82,2025.02,350.71,323.52,24.96,0000 0000 0000 0000 000000
2013-12-28 00:25:07,0.41,7.30,0.00,24.12,25.80,28.58,6.00,30.92,1016.63,2041.83,1593.29,1852.35,2024.58,349.89,322.28,24.97,0000 0000 0000 0000 000000
2013-12-28 00:26:07,0.74,7.30,0.00,24.15,25.80,28.58,5.93,31.00,1016.62,2041.90,1593.03,1852.11,2024.22,350.37,322.84,24.97,0000 0000 0000 0000 000000
2013-12-28 00:27:08,0.37,7.30,0.00,24.13,25.80,28.58,6.15,30.96,1016.63,2041.90,1592.48,1851.95,2024.07,351.24,323.89,24.98,0000 0000 0000 0000 000000
2013-12-28 00:28:08,0.37,7.31,0.00,24.14,25.80,28.56,6.08,30.88,1016.63,2041.86,1592.17,1851.49,2023.72,350.41,323.11,24.98,0000 0000 0000 0000 000000
2013-12-28 00:29:08,0.42,7.31,0.00,24.13,25.80,28.54,6.11,31.08,1016.63,2041.92,1591.90,1851.19,2023.30,350.48,322.99,24.99,0000 0000 0000 0000 000000
2013-12-28 00:30:08,0.47,7.31,0.00,24.10,25.79,28.54,6.07,30.96,1016.62,2041.91,1591.37,1851.06,2023.10,350.25,322.99,25.00,0000 0000 0000 0000 000000
2013-12-28 00:31:09,0.38,7.31,0.00,24.11,25.79,28.56,6.00,31.17,1016.62,2041.89,1591.07,1850.72,2022.75,350.39,323.12,25.00,0000 0000 0000 0000 000000
2013-12-28 00:32:09,0.37,7.32,0.00,24.13,25.79,28.58,6.04,31.08,1016.62,2041.89,1590.58,1850.31,2022.30,350.34,322.71,25.01,0000 0000 0000 0000 000000
2013-12-28 00:33:09,0.62,7.32,0.00,24.13,25.79,28.54,6.11,31.04,1016.62,2041.94,1590.21,1850.11,2022.10,350.39,323.09,25.01,0000 0000 0000 0000 000000
2013-12-28 00:34:09,0.39,7.32,0.00,24.12,25.78,28.54,5.88,31.04,1016.61,2041.94,1589.92,1850.00,2021.95,348.79,321.63,25.02,0000 0000 0000 0000 000000
2013-12-28 00:35:10,0.20,7.32,0.00,24.16,25.78,28.53,5.74,30.83,1016.60,2041.95,1589.39,1849.59,2021.50,349.18,321.95,25.03,0000 0000 0000 0000 000000
2013-12-28 00:36:10,0.62,7.33,0.00,24.16,25.77,28.56,6.05,31.04,1016.60,2041.96,1589.14,1849.22,2021.18,350.50,322.82,25.03,0000 0000 0000 0000 000000
2013-12-28 00:37:10,0.37,7.33,0.00,24.15,25.77,28.54,5.95,31.00,1016.62,2041.95,1588.74,1849.05,2020.98,349.21,321.99,25.04,0000 0000 0000 0000 000000
2013-12-28 00:38:10,0.29,7.33,0.00,24.13,25.77,28.54,5.98,30.92,1016.59,2041.94,1588.27,1848.64,2020.48,350.03,323.00,25.04,0000 0000 0000 0000 000000
2013-12-28 00:39:11,0.57,7.34,0.00,24.12,25.77,28.55,5.99,30.96,1016.56,2041.93,1588.00,1848.25,2020.17,350.81,323.46,25.05,0000 0000 0000 0000 000000
2013-12-28 00:40:11,0.39,7.34,0.00,24.11,25.77,28.55,5.94,31.25,1016.55,2041.93,1587.48,1848.09,2019.98,349.65,322.40,25.06,0000 0000 0000 0000 000000
2013-12-28 00:41:11,0.38,7.34,0.00,24.11,25.77,28.54,5.97,31.04,1016.53,2041.88,1587.15,1847.86,2019.48,350.31,323.01,25.06,0000 0000 0000 0000 000000
2013-12-28 00:42:12,0.37,7.34,0.00,24.12,25.77,28.52,5.84,30.96,1016.54,2041.87,1586.61,1847.38,2019.18,350.30,322.36,25.07,0000 0000 0000 0000 000000
2013-12-28 00:43:12,0.58,7.35,0.00,24.11,25.77,28.51,5.83,30.88,1016.50,2041.88,1586.22,1847.13,2019.04,348.97,321.61,25.07,0000 0000 0000 0000 000000
2013-12-28 00:44:12,0.34,7.35,0.00,24.12,25.77,28.50,5.90,31.13,1016.57,2041.87,1585.92,1846.95,2018.64,349.34,321.99,25.08,0000 0000 0000 0000 000000
2013-12-28 00:45:12,0.36,7.35,0.00,24.10,25.77,28.53,5.93,31.13,1016.56,2041.90,1585.37,1846.49,2018.23,350.13,323.15,25.08,0000 0000 0000 0000 000000
2013-12-28 00:46:13,0.66,7.35,0.00,24.08,25.77,28.55,6.13,31.21,1016.61,2041.94,1585.12,1846.18,2018.07,351.04,323.75,25.09,0000 0000 0000 0000 000000
2013-12-28 00:47:13,0.38,7.36,0.00,24.08,25.77,28.56,6.13,31.17,1016.62,2041.95,1584.69,1846.06,2017.83,350.59,323.63,25.10,0000 0000 0000 0000 000000
2013-12-28 00:48:13,0.35,7.36,0.00,24.10,25.77,28.55,6.11,31.21,1016.62,2041.95,1584.26,1845.77,2017.34,350.53,323.24,25.10,0000 0000 0000 0000 000000
2013-12-28 00:49:13,0.48,7.36,0.00,24.11,25.76,28.53,6.13,31.17,1016.62,2041.95,1583.91,1845.33,2017.12,349.75,322.08,25.11,0000 0000 0000 0000 000000
2013-12-28 00:50:13,0.48,7.36,0.00,24.09,25.76,28.53,5.77,30.96,1016.62,2041.96,1583.36,1845.11,2016.89,349.38,322.20,25.11,0000 0000 0000 0000 000000
2013-12-28 00:51:14,0.43,7.37,0.00,24.09,25.75,28.52,5.88,30.88,1016.62,2041.96,1583.04,1844.93,2016.40,349.24,322.08,25.12,0000 0000 0000 0000 000000
2013-12-28 00:52:14,0.41,7.37,0.00,24.08,25.75,28.51,6.08,31.00,1016.62,2041.97,1582.48,1844.47,2016.15,350.42,323.40,25.13,0000 0000 0000 0000 000000
2013-12-28 00:53:14,0.58,7.37,0.00,24.08,25.75,28.50,6.04,31.04,1016.60,2041.96,1582.16,1844.17,2016.00,350.51,323.24,25.13,0000 0000 0000 0000 000000
2013-12-28 00:54:14,0.34,7.37,0.00,24.09,25.75,28.53,6.08,30.83,1016.61,2041.97,1581.69,1844.00,2015.55,350.29,323.03,25.14,0000 0000 0000 0000 000000
2013-12-28 00:55:15,0.45,7.38,0.00,24.08,25.75,28.53,5.91,30.88,1016.62,2041.95,1581.26,1843.56,2015.21,349.57,322.16,25.14,0000 0000 0000 0000 000000
2013-12-28 00:56:15,0.53,7.38,0.00,24.08,25.75,28.56,5.88,30.88,1016.62,2041.96,1581.02,1843.21,2014.88,349.94,322.63,25.15,0000 0000 0000 0000 000000
2013-12-28 00:57:15,0.38,7.38,0.00,24.08,25.75,28.54,6.00,30.83,1016.61,2041.97,1580.47,1843.06,2014.39,349.47,322.29,25.15,0000 0000 0000 0000 000000
2013-12-28 00:58:16,0.51,7.38,0.00,24.08,25.75,28.51,5.77,30.79,1016.56,2041.96,1580.12,1842.74,2014.14,349.45,322.13,25.16,0000 0000 0000 0000 000000
2013-12-28 00:59:16,0.39,7.39,0.00,24.05,25.75,28.50,5.96,30.75,1016.50,2041.96,1579.56,1842.29,2013.85,349.84,322.81,25.17,0000 0000 0000 0000 000000
2013-12-28 01:00:16,0.59,7.39,0.00,24.04,25.75,28.52,5.82,30.75,1016.44,2041.96,1579.19,1842.10,2013.39,349.45,322.65,25.17,0000 0000 0000 0000 000000
2013-12-28 01:01:16,0.44,7.39,0.00,24.03,25.75,28.53,6.02,30.79,1016.33,2041.98,1578.65,1841.80,2013.14,350.56,323.78,25.18,0000 0000 0000 0000 000000
2013-12-28 01:02:17,0.47,7.40,0.00,24.06,25.75,28.52,6.02,30.88,1016.33,2041.98,1578.24,1841.35,2012.97,349.96,322.48,25.18,0000 0000 0000 0000 000000
2013-12-28 01:03:17,0.49,7.40,0.00,24.07,25.75,28.52,5.90,30.83,1016.38,2041.97,1577.91,1841.12,2012.49,349.53,322.29,25.19,0000 0000 0000 0000 000000
2013-12-28 01:04:17,0.39,7.40,0.00,24.06,25.74,28.48,5.90,30.83,1016.41,2041.96,1577.38,1840.91,2012.18,349.44,322.45,25.20,0000 0000 0000 0000 000000
2013-12-28 01:05:17,0.45,7.40,0.00,24.05,25.74,28.48,6.00,30.67,1016.32,2041.96,1577.05,1840.42,2011.99,350.76,323.07,25.20,0000 0000 0000 0000 000000
2013-12-28 01:06:17,0.50,7.41,0.00,24.06,25.74,28.48,5.98,30.88,1016.25,2041.97,1576.49,1840.15,2011.48,351.14,323.90,25.21,0000 0000 0000 0000 000000
2013-12-28 01:07:18,0.53,7.41,0.00,24.06,25.73,28.49,5.93,30.75,1016.23,2041.98,1576.14,1839.96,2011.17,349.46,322.19,25.21,0000 0000 0000 0000 000000
2013-12-28 01:08:18,0.39,7.41,0.00,24.06,25.72,28.49,6.06,30.83,1016.18,2041.99,1575.60,1839.50,2010.91,350.14,323.00,25.22,0000 0000 0000 0000 000000
2013-12-28 01:09:18,0.56,7.42,0.00,24.07,25.72,28.48,5.94,30.75,1016.17,2041.98,1575.21,1839.18,2010.40,349.98,322.77,25.22,0000 0000 0000 0000 000000
2013-12-28 01:10:18,0.50,7.42,0.00,24.07,25.72,28.49,5.91,30.75,1016.16,2041.98,1574.91,1839.03,2010.13,350.08,322.73,25.23,0000 0000 0000 0000 000000
2013-12-28 01:11:19,0.30,7.42,0.00,24.06,25.72,28.46,5.75,30.92,1016.14,2041.99,1574.41,1838.64,2009.89,349.16,321.89,25.24,0000 0000 0000 0000 000000
2013-12-28 01:12:19,0.49,7.42,0.00,24.07,25.72,28.47,6.03,31.17,1016.14,2041.99,1574.12,1838.24,2009.39,350.91,323.42,25.24,0000 0000 0000 0000 000000
2013-12-28 01:13:19,0.51,7.43,0.00,24.04,25.72,28.47,6.03,31.00,1016.13,2041.98,1573.78,1838.07,2009.14,349.98,322.66,25.25,0000 0000 0000 0000 000000
2013-12-28 01:14:20,0.29,7.43,0.00,24.05,25.72,28.49,5.77,30.92,1016.13,2041.99,1573.30,1837.87,2008.96,348.72,321.49,25.25,0000 0000 0000 0000 000000
2013-12-28 01:15:20,0.41,7.43,0.00,24.06,25.72,28.46,5.82,30.83,1016.13,2041.99,1573.00,1837.39,2008.49,349.69,322.37,25.26,0000 0000 0000 0000 000000
2013-12-28 01:16:20,0.53,7.43,0.00,24.06,25.72,28.45,5.88,30.92,1016.13,2041.99,1572.50,1837.14,2008.18,350.44,322.69,25.27,0000 0000 0000 0000 000000
2013-12-28 01:17:20,0.48,7.44,0.00,24.04,25.72,28.44,6.01,31.13,1016.13,2041.98,1572.18,1836.96,2008.01,349.77,322.39,25.27,0000 0000 0000 0000 000000
2013-12-28 01:18:21,0.35,7.44,0.00,24.05,25.72,28.48,6.21,31.08,1016.13,2041.99,1571.81,1836.52,2007.53,350.75,323.62,25.28,0000 0000 0000 0000 000000
2013-12-28 01:19:21,0.52,7.44,0.00,24.06,25.72,28.47,6.03,31.08,1016.13,2041.99,1571.30,1836.19,2007.19,351.11,323.68,25.28,0000 0000 0000 0000 000000
2013-12-28 01:20:21,0.49,7.44,0.00,24.04,25.71,28.50,6.01,30.92,1016.13,2041.99,1571.00,1836.05,2007.05,350.61,322.62,25.29,0000 0000 0000 0000 000000
2013-12-28 01:21:21,0.32,7.45,0.00,24.00,25.71,28.50,6.05,31.08,1016.13,2041.99,1570.44,1835.78,2006.65,349.84,322.57,25.30,0000 0000 0000 0000 000000
2013-12-28 01:22:22,0.50,7.45,0.00,24.02,25.70,28.48,6.10,31.00,1016.13,2041.98,1570.15,1835.33,2006.24,350.72,322.72,25.30,0000 0000 0000 0000 000000
2013-12-28 01:23:22,0.47,7.45,0.00,24.04,25.70,28.48,5.89,30.96,1016.13,2041.99,1569.79,1835.12,2006.08,348.92,321.62,25.31,0000 0000 0000 0000 000000
2013-12-28 01:24:22,0.34,7.45,0.00,24.02,25.70,28.48,5.86,31.04,1016.12,2041.99,1569.30,1834.95,2005.79,349.80,322.70,25.31,0000 0000 0000 0000 000000
2013-12-28 01:25:22,0.44,7.46,0.00,24.02,25.70,28.49,5.85,30.88,1016.13,2041.99,1569.06,1834.47,2005.33,349.68,322.41,25.32,0000 0000 0000 0000 000000
2013-12-28 01:26:23,0.50,7.46,0.00,24.02,25.70,28.46,5.89,30.71,1016.13,2041.99,1568.58,1834.18,2005.11,349.89,322.60,25.32,0000 0000 0000 0000 000000
2013-12-28 01:27:23,0.41,7.46,0.00,24.03,25.70,28.44,5.92,30.79,1016.13,2041.98,1568.21,1834.05,2004.94,350.16,322.81,25.33,0000 0000 0000 0000 000000
2013-12-28 01:28:23,0.33,7.46,0.00,24.01,25.70,28.46,5.92,30.83,1016.13,2041.99,1567.80,1833.79,2004.46,349.64,322.38,25.34,0000 0000 0000 0000 000000
2013-12-28 01:29:23,0.47,7.47,0.00,24.02,25.70,28.41,5.99,30.92,1016.13,2041.99,1567.30,1833.33,2004.17,350.40,323.23,25.34,0000 0000 0000 0000 000000
2013-12-28 01:30:24,0.55,7.47,0.00,24.02,25.70,28.43,5.88,30.83,1016.13,2041.99,1566.99,1833.12,2004.05,349.59,322.07,25.35,0000 0000 0000 0000 000000
2013-12-28 01:31:24,0.33,7.47,0.00,24.02,25.70,28.45,5.95,31.08,1016.12,2041.99,1566.45,1832.96,2003.73,350.15,322.83,25.35,0000 0000 0000 0000 000000
2013-12-28 01:32:24,0.45,7.47,0.00,24.01,25.69,28.45,5.79,31.00,1016.11,2041.99,1566.16,1832.50,2003.28,350.10,323.22,25.36,0000 0000 0000 0000 000000
2013-12-28 01:33:24,0.49,7.48,0.00,24.00,25.69,28.46,6.03,31.17,1016.11,2041.99,1565.76,1832.19,2003.08,350.89,323.54,25.37,0000 0000 0000 0000 000000
2013-12-28 01:34:25,0.40,7.48,0.00,23.99,25.68,28.46,6.13,31.17,1016.09,2041.99,1565.30,1832.06,2002.86,350.48,323.16,25.37,0000 0000 0000 0000 000000
2013-12-28 01:35:25,0.36,7.48,0.00,24.01,25.68,28.43,6.06,31.08,1016.04,2041.98,1565.06,1831.86,2002.37,350.22,323.23,25.38,0000 0000 0000 0000 000000
2013-12-28 01:36:25,0.38,7.48,0.00,24.00,25.67,28.44,6.03,31.08,1015.99,2041.99,1564.57,1831.40,2002.13,350.28,322.72,25.38,0000 0000 0000 0000 000000
2013-12-28 01:37:26,0.51,7.49,0.00,23.99,25.67,28.44,5.73,31.04,1016.00,2041.99,1564.22,1831.15,2002.03,349.11,321.87,25.39,0000 0000 0000 0000 000000
2013-12-28 01:38:26,0.34,7.49,0.00,24.00,25.67,28.44,5.83,30.88,1016.04,2041.99,1563.95,1831.03,2001.72,350.02,322.32,25.39,0000 0000 0000 0000 000000
2013-12-28 01:39:26,0.31,7.49,0.00,24.01,25.67,28.47,5.86,31.13,1016.11,2041.99,1563.43,1830.63,2001.28,349.73,322.46,25.40,0000 0000 0000 0000 000000
2013-12-28 01:40:26,0.54,7.49,0.00,23.97,25.67,28.46,5.81,30.79,1016.12,2041.99,1563.15,1830.24,2001.10,349.09,321.91,25.41,0000 0000 0000 0000 000000
2013-12-28 01:41:27,0.40,7.50,0.00,23.98,25.67,28.43,5.91,30.88,1016.11,2041.99,1562.97,1830.08,2001.03,349.59,322.37,25.41,0000 0000 0000 0000 000000
2013-12-28 01:42:27,0.23,7.50,0.00,23.99,25.67,28.40,6.02,31.00,1016.04,2041.99,1562.48,1830.02,2000.67,350.70,323.67,25.42,0000 0000 0000 0000 000000
2013-12-28 01:43:27,0.35,7.50,0.00,23.99,25.67,28.42,5.88,30.92,1016.05,2042.00,1562.18,1829.78,2000.25,350.15,322.32,25.42,0000 0000 0000 0000 000000
2013-12-28 01:44:27,0.41,7.50,0.00,23.99,25.67,28.41,6.02,31.29,1016.07,2042.00,1561.98,1829.34,2000.09,350.43,322.83,25.43,0000 0000 0000 0000 000000
2013-12-28 01:45:28,0.37,7.50,0.00,23.99,25.67,28.41,5.99,30.92,1015.98,2042.00,1561.45,1829.12,1999.94,350.11,322.78,25.44,0000 0000 0000 0000 000000
2013-12-28 01:46:28,0.39,7.51,0.00,24.00,25.67,28.42,6.12,31.04,1015.78,2042.00,1561.16,1829.04,1999.45,350.05,322.66,25.44,0000 0000 0000 0000 000000
2013-12-28 01:47:28,0.32,7.51,0.00,24.03,25.66,28.41,5.93,30.96,1015.76,2042.00,1560.99,1828.80,1999.18,349.97,322.29,25.45,0000 0000 0000 0000 000000
2013-12-28 01:48:28,0.31,7.51,0.00,24.01,25.65,28.40,5.85,31.08,1015.77,2042.00,1560.54,1828.32,1999.05,349.88,322.49,25.45,0000 0000 0000 0000 000000
2013-12-28 01:49:29,0.48,7.51,0.00,24.00,25.65,28.41,6.07,30.92,1015.79,2042.00,1560.20,1828.11,1998.76,350.50,323.07,25.46,0000 0000 0000 0000 000000
2013-12-28 01:50:29,0.36,7.52,0.00,24.00,25.65,28.40,5.90,30.75,1015.72,2042.00,1559.96,1828.04,1998.32,350.56,323.11,25.47,0000 0000 0000 0000 000000
2013-12-28 01:51:29,0.31,7.52,0.00,24.00,25.65,28.38,5.78,30.88,1015.68,2042.00,1559.47,1827.78,1998.11,349.15,321.80,25.47,0000 0000 0000 0000 000000
2013-12-28 01:52:30,0.41,7.52,0.00,23.99,25.65,28.37,6.08,31.00,1015.67,2042.02,1559.18,1827.33,1998.03,350.72,323.25,25.48,0000 0000 0000 0000 000000
2013-12-28 01:53:30,0.43,7.52,0.00,23.97,25.65,28.36,5.80,30.96,1015.66,2042.00,1558.99,1827.12,1997.65,349.98,322.62,25.48,0000 0000 0000 0000 000000
2013-12-28 01:54:30,0.32,7.52,0.00,23.94,25.65,28.39,5.73,30.88,1015.65,2042.00,1558.47,1827.03,1997.27,349.44,322.06,25.49,0000 0000 0000 0000 000000
2013-12-28 01:55:31,0.35,7.53,0.00,23.97,25.65,28.40,5.96,30.96,1015.64,2042.01,1558.17,1826.82,1997.10,349.62,322.26,25.49,0000 0000 0000 0000 000000
2013-12-28 01:56:31,0.33,7.53,0.00,23.98,25.65,28.39,6.03,31.00,1015.64,2042.00,1557.96,1826.36,1996.93,350.51,323.06,25.50,0000 0000 0000 0000 000000
2013-12-28 01:57:31,0.42,7.53,0.00,23.98,25.65,28.39,6.06,31.00,1015.64,2042.00,1557.49,1826.13,1996.48,350.75,322.79,25.51,0000 0000 0000 0000 000000
2013-12-28 01:58:32,0.43,7.54,0.00,23.97,25.65,28.41,6.02,31.00,1015.64,2042.01,1557.18,1826.04,1996.19,349.99,322.94,25.51,0000 0000 0000 0000 000000
2013-12-28 01:59:32,0.29,7.54,0.00,23.99,25.65,28.42,5.93,30.79,1015.64,2042.01,1556.97,1825.82,1996.07,351.14,322.97,25.52,0000 0000 0000 0000 000000
2013-12-28 02:00:32,0.35,7.54,0.00,24.00,25.64,28.41,6.12,31.08,1015.64,2042.00,1556.46,1825.33,1995.86,350.73,323.02,25.52,0000 0000 0000 0000 000000
2013-12-28 02:01:33,0.49,7.54,0.00,23.98,25.63,28.41,5.78,30.83,1015.64,2042.02,1556.17,1825.12,1995.37,349.43,322.06,25.53,0000 0000 0000 0000 000000
2013-12-28 02:02:33,0.38,7.54,0.00,23.96,25.63,28.41,5.81,30.96,1015.64,2042.01,1555.98,1825.04,1995.13,349.49,321.73,25.54,0000 0000 0000 0000 000000
2013-12-28 02:03:33,0.28,7.54,0.00,23.97,25.62,28.37,5.73,30.96,1015.64,2042.02,1555.49,1824.72,1994.96,349.05,321.24,25.54,0000 0000 0000 0000 000000
2013-12-28 02:04:33,0.46,7.55,0.00,23.98,25.62,28.40,5.93,30.88,1015.64,2042.02,1555.18,1824.29,1994.47,350.23,322.48,25.55,0000 0000 0000 0000 000000
2013-12-28 02:05:33,0.48,7.55,0.00,23.99,25.62,28.39,5.90,30.79,1015.64,2042.02,1554.89,1824.11,1994.18,349.47,322.24,25.55,0000 0000 0000 0000 000000
2013-12-28 02:06:34,0.35,7.55,0.00,23.95,25.62,28.39,6.08,31.04,1015.64,2042.01,1554.38,1824.00,1994.04,350.03,322.65,25.56,0000 0000 0000 0000 000000
2013-12-28 02:07:34,0.35,7.55,0.00,23.95,25.62,28.37,5.73,30.92,1015.63,2042.02,1554.12,1823.60,1993.70,349.17,321.63,25.56,0000 0000 0000 0000 000000
2013-12-28 02:08:34,0.43,7.56,0.00,23.97,25.62,28.38,5.88,30.79,1015.60,2042.03,1553.73,1823.22,1993.27,350.11,322.69,25.57,0000 0000 0000 0000 000000
2013-12-28 02:09:34,0.51,7.56,0.00,23.97,25.62,28.39,5.85,30.92,1015.45,2042.05,1553.28,1823.06,1993.09,349.43,322.02,25.58,0000 0000 0000 0000 000000
2013-12-28 02:10:35,0.36,7.56,0.00,23.96,25.62,28.38,5.97,31.00,1015.42,2042.04,1553.02,1822.84,1992.93,349.77,322.76,25.58,0000 0000 0000 0000 000000
2013-12-28 02:11:35,0.39,7.57,0.00,23.97,25.62,28.37,5.78,30.83,1015.43,2042.02,1552.48,1822.37,1992.44,349.37,321.95,25.59,0000 0000 0000 0000 000000
2013-12-28 02:12:35,0.54,7.57,0.00,23.95,25.62,28.36,5.93,31.04,1015.43,2042.03,1552.16,1822.13,1992.16,350.25,322.88,25.59,0000 0000 0000 0000 000000
2013-12-28 02:13:35,0.41,7.57,0.00,23.96,25.62,28.38,6.08,31.08,1015.42,2042.01,1551.71,1822.03,1992.06,350.46,322.81,25.60,0000 0000 0000 0000 000000
2013-12-28 02:14:36,0.29,7.57,0.00,23.95,25.61,28.36,6.05,30.92,1015.49,2042.03,1551.31,1821.77,1991.86,350.73,323.28,25.61,0000 0000 0000 0000 000000
2013-12-28 02:15:36,0.42,7.57,0.00,23.97,25.61,28.37,6.14,30.96,1015.47,2042.02,1551.09,1821.32,1991.36,350.93,323.58,25.61,0000 0000 0000 0000 000000
2013-12-28 02:16:36,0.48,7.58,0.00,23.96,25.60,28.35,5.97,31.00,1015.31,2042.03,1550.60,1821.11,1991.13,349.87,322.27,25.62,0000 0000 0000 0000 000000
2013-12-28 02:17:36,0.39,7.58,0.00,23.95,25.60,28.39,6.22,31.08,1015.19,2042.01,1550.22,1820.99,1990.97,350.61,322.85,25.62,0000 0000 0000 0000 000000
2013-12-28 02:18:37,0.33,7.58,0.00,23.95,25.60,28.38,6.08,30.96,1015.18,2042.01,1550.06,1820.63,1990.48,350.26,322.53,25.63,0000 0000 0000 0000 000000
2013-12-28 02:19:37,0.38,7.59,0.00,23.93,25.60,28.38,5.88,30.75,1015.16,2042.02,1549.67,1820.26,1990.18,349.82,322.47,25.64,0000 0000 0000 0000 000000
2013-12-28 02:20:37,0.47,7.59,0.00,23.94,25.60,28.37,6.12,31.00,1015.15,2042.02,1549.25,1820.09,1990.05,350.22,322.50,25.64,0000 0000 0000 0000 000000
2013-12-28 02:21:38,0.34,7.59,0.00,23.94,25.60,28.35,5.81,30.96,1015.15,2042.05,1549.09,1820.01,1989.95,349.38,321.90,25.65,0000 0000 0000 0000 000000
2013-12-28 02:22:38,0.23,7.59,0.00,23.93,25.60,28.36,5.98,30.79,1015.16,2042.07,1548.78,1819.73,1989.49,349.52,322.26,25.65,0000 0000 0000 0000 000000
2013-12-28 02:23:38,0.46,7.59,0.00,23.94,25.60,28.33,5.86,30.92,1015.16,2042.09,1548.30,1819.31,1989.18,350.04,322.51,25.66,0000 0000 0000 0000 000000
2013-12-28 02:24:39,0.49,7.59,0.00,23.94,25.60,28.36,6.02,30.92,1015.16,2042.06,1548.10,1819.11,1989.06,350.68,323.11,25.66,0000 0000 0000 0000 000000
2013-12-28 02:25:39,0.25,7.60,0.00,23.93,25.60,28.37,6.03,30.92,1015.15,2042.03,1547.71,1819.03,1988.94,350.82,323.24,25.67,0000 0000 0000 0000 000000
2013-12-28 02:26:39,0.27,7.60,0.00,23.92,25.60,28.35,5.88,30.67,1015.15,2042.04,1547.29,1818.88,1988.45,349.91,322.41,25.68,0000 0000 0000 0000 000000
2013-12-28 02:27:39,0.42,7.60,0.00,23.93,25.60,28.38,5.97,31.08,1015.15,2042.04,1547.10,1818.43,1988.16,349.91,322.40,25.68,0000 0000 0000 0000 000000
2013-12-28 02:28:40,0.40,7.60,0.00,23.94,25.59,28.33,5.91,31.08,1015.15,2042.06,1546.87,1818.16,1988.05,350.39,322.83,25.69,0000 0000 0000 0000 000000
2013-12-28 02:29:40,0.34,7.60,0.00,23.93,25.59,28.37,5.88,31.04,1015.14,2042.06,1546.35,1818.05,1987.93,350.38,322.84,25.69,0000 0000 0000 0000 000000
2013-12-28 02:30:40,0.35,7.61,0.00,23.92,25.59,28.36,6.08,31.00,1015.15,2042.08,1546.12,1817.96,1987.49,350.01,322.19,25.70,0000 0000 0000 0000 000000
2013-12-28 02:31:41,0.34,7.61,0.00,23.91,25.58,28.34,5.84,30.79,1015.15,2042.09,1545.89,1817.50,1987.20,349.18,322.00,25.71,0000 0000 0000 0000 000000
2013-12-28 02:32:41,0.47,7.61,0.00,23.90,25.57,28.35,5.92,30.79,1015.09,2042.10,1545.40,1817.19,1987.07,350.08,322.57,25.71,0000 0000 0000 0000 000000
2013-12-28 02:33:41,0.40,7.62,0.00,23.91,25.57,28.36,5.94,30.83,1014.97,2042.11,1545.15,1817.07,1986.99,350.89,322.92,25.72,0000 0000 0000 0000 000000
2013-12-28 02:34:42,0.23,7.62,0.00,23.92,25.57,28.36,5.89,30.79,1014.85,2042.20,1544.97,1817.00,1986.69,349.47,322.13,25.72,0000 0000 0000 0000 000000
2013-12-28 02:35:42,0.36,7.62,0.00,23.90,25.57,28.35,5.59,30.83,1014.79,2042.28,1544.46,1816.85,1986.30,348.60,321.12,25.73,0000 0000 0000 0000 000000